Hoolehua, HI

12:11 PM HST on February 25, 2017 (GMT -1000)
Molokai

Weather History for PHMK - October, 2011

Change the Weather History Date:

Tuesday, October 25, 2011

  Actual Average Record
Temperature  
Mean Temperature 76 °F -  
Max Temperature 84 °F 84 °F 90 °F (1973)
Min Temperature 68 °F 69 °F 64 °F (1981)
Cooling Degree Days 12    
Growing Degree Days 26 (Base 50)    
Moisture  
Dew Point 62 °F    
Average Humidity 64    
Maximum Humidity 78    
Minimum Humidity 44    
Precipitation  
Precipitation 0.00 in - - ()
Sea Level Pressure  
Sea Level Pressure 30.00 in    
Wind  
Wind Speed 5 mph (NE)    
Max Wind Speed 12 mph    
Max Gust Speed 21 mph    
Visibility 10 miles    
Events      
Averages and records for this station are not official NWS values.
T = Trace of Precipitation, MM = Missing Value Source: NWS Daily Summary

Daily Weather History Graph

Daily Weather History Graph

Search for Another Location

Airport or City:

Trip Planner

Search our weather history database for the weather conditions in past years. The results will help you decide how hot, cold, wet, or windy it might be!

Date:

Astronomy

Oct. 25, 2011 Rise Set
Actual Time 6:27 AM HST 5:56 PM HST
Civil Twilight 6:05 AM HST 6:19 PM HST
Nautical Twilight 5:39 AM HST 6:45 PM HST
Astronomical Twilight 5:13 AM HST 7:11 PM HST
Moon 5:16 AM HST 5:07 PM HST
Length of Visible Light 12h 14m
Length of Day
11h 28m
Waning Crescent, 1% of the Moon is Illuminated
Oct 25
Waning Crescent
Oct 26
New
Nov 2
First Quarter
Nov 10
Full
Nov 18
Last Quarter

Hourly Weather History & Observations

Time (HST) Temp. Heat Index Dew Point Humidity Pressure Visibility Wind Dir Wind Speed Gust Speed Precip Events Conditions
12:54 AM 70.0 °F - 60.1 °F 71% 30.01 in 10.0 mi Calm Calm - N/A   Partly Cloudy
1:54 AM 73.9 °F - 61.0 °F 64% 30.00 in 10.0 mi NNE 6.9 mph - N/A   Clear
2:54 AM 73.0 °F - 60.1 °F 64% 29.97 in 10.0 mi NNE 5.8 mph - N/A   Clear
3:54 AM 72.0 °F - 59.0 °F 64% 29.97 in 10.0 mi NE 4.6 mph - N/A   Clear
4:54 AM 69.1 °F - 60.1 °F 73% 29.98 in 10.0 mi NE 3.5 mph - N/A   Clear
5:54 AM 73.0 °F - 63.0 °F 71% 29.99 in 10.0 mi North 5.8 mph - N/A   Clear
6:54 AM 69.1 °F - 62.1 °F 78% 30.01 in 10.0 mi East 4.6 mph - N/A   Clear
7:54 AM 78.1 °F - 62.1 °F 58% 30.01 in 10.0 mi Calm Calm - N/A   Clear
8:54 AM 81.0 °F 82.2 °F 63.0 °F 54% 29.99 in 10.0 mi NE 9.2 mph 19.6 mph N/A   Partly Cloudy
9:54 AM 81.0 °F 81.7 °F 61.0 °F 50% 30.01 in 10.0 mi South 4.6 mph - N/A   Scattered Clouds
10:54 AM 84.9 °F 85.0 °F 61.0 °F 44% 29.99 in 10.0 mi ENE 9.2 mph - N/A   Scattered Clouds
11:54 AM 82.0 °F 83.0 °F 62.1 °F 51% 29.99 in 10.0 mi NE 11.5 mph - N/A   Overcast
12:54 PM 82.0 °F 83.1 °F 63.0 °F 52% 29.97 in 10.0 mi NNE 8.1 mph 18.4 mph N/A   Scattered Clouds
1:54 PM 82.0 °F 83.0 °F 62.1 °F 51% 29.96 in 10.0 mi NE 8.1 mph 20.7 mph N/A   Partly Cloudy
2:54 PM 82.0 °F 83.1 °F 63.0 °F 52% 29.96 in 10.0 mi NNE 11.5 mph 18.4 mph N/A   Scattered Clouds
3:54 PM 81.0 °F 82.7 °F 64.9 °F 58% 29.96 in 10.0 mi NNE 9.2 mph - N/A   Scattered Clouds
4:54 PM 79.0 °F - 66.0 °F 64% 29.97 in 10.0 mi NE 8.1 mph - N/A   Partly Cloudy
5:54 PM 75.9 °F - 64.9 °F 69% 29.99 in 10.0 mi NE 8.1 mph - N/A   Clear
6:54 PM 75.0 °F - 64.9 °F 71% 30.01 in 10.0 mi NE 5.8 mph - N/A   Clear
7:54 PM 73.0 °F - 62.1 °F 68% 30.02 in 10.0 mi ENE 6.9 mph - N/A   Clear
8:54 PM 69.1 °F - 61.0 °F 75% 30.05 in 10.0 mi Calm Calm - N/A   Clear
9:54 PM 71.1 °F - 63.0 °F 75% 30.06 in 10.0 mi North 5.8 mph - N/A   Clear
10:54 PM 71.1 °F - 63.0 °F 75% 30.07 in 10.0 mi Calm Calm - N/A   Clear
11:54 PM 68.0 °F - 61.0 °F 78% 30.06 in 10.0 mi NE 4.6 mph - N/A   Clear